Terug naar catalogus

FENGYUN 1C DEB

ActiefSSO
NORAD 31210·DEBRIS·🇨🇳 China

Gelanceerd May 10, 1999 vanaf Taiyuan Satellite Launch Center

Loading…

Volgende Passages (komende 24 uur)

TLE

VerouderendSource: Space-Track

Epoch: Sep 10, 2026, 05:38 UTC

1 31210U 99025BKQ 26253.23475894  .00000347  00000-0  21156-3 0  9994
2 31210  98.7277 251.9718 0018038 104.6078 317.7197 14.12306143997991

Volg FENGYUN 1C DEB in realtime met AllMySat

Download on the App Store